When you browse on this site, cookies collect data to enhance your experience and personalize the content and advertising you see.
Visit our Privacy Policy to learn more. By continuing to use the site, you agree to this use of cookies and data.
  • en Belgique
  • Liste des pays
  • À 7 jours
  • Température de l'eau
  • Carte satellitaire
  • Carte météo
  • Widgets météo
  • user-avatar
    Se connecter

    Météo par heure à Galata

    Ce jour, 21 Janvier, Lundi

    Heure Température Précipitation Vent Pression Humidité
    00:00 +7°C° 0 mm 3 m/s 755 mmHg 94%
    01:00 +5°C° 0 mm 3 m/s 755 mmHg 94%
    02:00 +5°C° 0 mm 3 m/s 755 mmHg 94%
    03:00 +4°C° 0 mm 4 m/s 755 mmHg 93%
    04:00 +2°C° 0 mm 5 m/s 755 mmHg 91%
    05:00 +2°C° 0 mm 6 m/s 755 mmHg 89%
    06:00 +2°C° 0 mm 6 m/s 755 mmHg 88%
    07:00 +1°C° 0 mm 6 m/s 756 mmHg 87%
    08:00 +1°C° 0 mm 6 m/s 756 mmHg 86%
    09:00 +1°C° 0 mm 6 m/s 757 mmHg 82%
    10:00 +2°C° 0 mm 6 m/s 757 mmHg 79%
    11:00 +3°C° 0 mm 6 m/s 758 mmHg 75%
    12:00 +3°C° 0 mm 6 m/s 758 mmHg 74%
    13:00 +3°C° 0 mm 5 m/s 758 mmHg 73%
    14:00 +3°C° 0 mm 5 m/s 758 mmHg 72%
    15:00 +3°C° 0 mm 5 m/s 758 mmHg 73%
    16:00 +3°C° 0 mm 4 m/s 759 mmHg 75%
    17:00 +1°C° 0 mm 4 m/s 759 mmHg 76%
    18:00 +1°C° 0 mm 4 m/s 759 mmHg 79%
    19:00 0°C° 0 mm 4 m/s 760 mmHg 81%
    20:00 -1°C° 0 mm 4 m/s 760 mmHg 83%
    21:00 0°C° 0 mm 3 m/s 760 mmHg 84%
    22:00 0°C° 0 mm 3 m/s 760 mmHg 84%
    23:00 -1°C° 0 mm 3 m/s 760 mmHg 85%

    Demain, 22 Janvier, Mardi

    Heure Température Précipitation Vent Pression Humidité
    00:00 -1°C° 0 mm 3 m/s 760 mmHg 85%
    01:00 -1°C° 0 mm 2 m/s 760 mmHg 86%
    02:00 -1°C° 0 mm 2 m/s 760 mmHg 86%
    03:00 -1°C° 0 mm 2 m/s 760 mmHg 87%
    04:00 +1°C° 0 mm 2 m/s 760 mmHg 88%
    05:00 +1°C° 0 mm 2 m/s 760 mmHg 90%
    06:00 +1°C° 0 mm 2 m/s 760 mmHg 89%
    07:00 +1°C° 0 mm 2 m/s 760 mmHg 88%
    08:00 +1°C° 0 mm 3 m/s 759 mmHg 88%
    09:00 +1°C° 0 mm 3 m/s 759 mmHg 85%
    10:00 +2°C° 0 mm 3 m/s 759 mmHg 82%
    11:00 +3°C° 0 mm 4 m/s 759 mmHg 80%
    12:00 +3°C° 0 mm 4 m/s 758 mmHg 80%
    13:00 +3°C° 0 mm 4 m/s 758 mmHg 80%
    14:00 +3°C° 0 mm 5 m/s 757 mmHg 80%
    15:00 +3°C° 0 mm 5 m/s 756 mmHg 82%
    16:00 +3°C° 0 mm 5 m/s 756 mmHg 84%
    17:00 +2°C° 0 mm 5 m/s 756 mmHg 87%
    18:00 +3°C° 0 mm 5 m/s 755 mmHg 88%
    19:00 +3°C° 0 mm 5 m/s 755 mmHg 89%
    20:00 +3°C° 0 mm 5 m/s 755 mmHg 90%
    21:00 +3°C° 0.1 mm 6 m/s 754 mmHg 91%
    22:00 +4°C° 0.1 mm 6 m/s 754 mmHg 92%
    23:00 +4°C° 0.1 mm 6 m/s 753 mmHg 92%

    Après-demain, 23 Janvier, Mercredi

    Heure Température Précipitation Vent Pression Humidité
    00:00 +4°C° 0 mm 6 m/s 752 mmHg 93%
    01:00 +4°C° 0 mm 6 m/s 752 mmHg 93%
    02:00 +4°C° 0 mm 6 m/s 751 mmHg 93%
    03:00 +5°C° 1.2 mm 7 m/s 750 mmHg 94%
    04:00 +5°C° 1.2 mm 7 m/s 749 mmHg 96%
    05:00 +5°C° 1.2 mm 7 m/s 748 mmHg 97%
    06:00 +5°C° 1.5 mm 7 m/s 748 mmHg 95%
    07:00 +6°C° 1.5 mm 7 m/s 748 mmHg 92%
    08:00 +6°C° 1.5 mm 7 m/s 747 mmHg 90%
    09:00 +7°C° 0 mm 8 m/s 747 mmHg 86%
    10:00 +8°C° 0 mm 9 m/s 747 mmHg 82%
    11:00 +10°C° 0 mm 9 m/s 747 mmHg 78%
    12:00 +11°C° 0 mm 9 m/s 747 mmHg 74%
    13:00 +12°C° 0 mm 8 m/s 747 mmHg 70%
    14:00 +12°C° 0 mm 8 m/s 746 mmHg 66%
    15:00 +12°C° 0.1 mm 7 m/s 747 mmHg 69%
    16:00 +11°C° 0.1 mm 6 m/s 747 mmHg 72%
    17:00 +10°C° 0.1 mm 6 m/s 747 mmHg 75%
    18:00 +9°C° 0 mm 6 m/s 747 mmHg 77%
    19:00 +9°C° 0 mm 5 m/s 748 mmHg 80%
    20:00 +8°C° 0 mm 5 m/s 748 mmHg 83%
    21:00 +8°C° 0 mm 5 m/s 748 mmHg 85%
    22:00 +8°C° 0 mm 4 m/s 748 mmHg 88%
    23:00 +7°C° 0 mm 4 m/s 748 mmHg 90%

    24 Janvier, Jeudi

    Heure Température Précipitation Vent Pression Humidité
    00:00 +8°C° 0 mm 3 m/s 749 mmHg 91%
    01:00 +8°C° 0 mm 3 m/s 749 mmHg 92%
    02:00 +8°C° 0 mm 3 m/s 749 mmHg 93%
    03:00 +8°C° 0.1 mm 3 m/s 748 mmHg 94%
    04:00 +8°C° 0.1 mm 2 m/s 748 mmHg 95%
    05:00 +8°C° 0.1 mm 2 m/s 748 mmHg 96%
    06:00 +8°C° 0.1 mm 2 m/s 748 mmHg 96%
    07:00 +8°C° 0.1 mm 3 m/s 748 mmHg 97%
    08:00 +8°C° 0.1 mm 3 m/s 748 mmHg 97%
    09:00 +8°C° 0 mm 4 m/s 748 mmHg 94%
    10:00 +8°C° 0 mm 4 m/s 748 mmHg 90%
    11:00 +10°C° 0 mm 4 m/s 749 mmHg 87%
    12:00 +9°C° 0 mm 5 m/s 748 mmHg 85%
    13:00 +10°C° 0 mm 6 m/s 748 mmHg 83%
    14:00 +10°C° 0 mm 7 m/s 747 mmHg 81%
    15:00 +9°C° 0 mm 7 m/s 747 mmHg 84%
    16:00 +8°C° 0 mm 7 m/s 747 mmHg 88%
    17:00 +6°C° 0 mm 8 m/s 747 mmHg 91%
    18:00 +6°C° 0 mm 9 m/s 747 mmHg 90%
    19:00 +6°C° 0 mm 10 m/s 748 mmHg 90%
    20:00 +6°C° 0 mm 10 m/s 748 mmHg 90%
    21:00 +6°C° 0 mm 10 m/s 748 mmHg 90%
    22:00 +6°C° 0 mm 10 m/s 748 mmHg 90%
    23:00 +6°C° 0 mm 10 m/s 749 mmHg 91%

    25 Janvier, Vendredi

    Heure Température Précipitation Vent Pression Humidité
    00:00 +5°C° 0.1 mm 9 m/s 749 mmHg 91%
    01:00 +5°C° 0.1 mm 9 m/s 749 mmHg 90%
    02:00 +5°C° 0.1 mm 9 m/s 749 mmHg 90%
    03:00 +5°C° 0.2 mm 9 m/s 749 mmHg 91%
    04:00 +5°C° 0.2 mm 8 m/s 749 mmHg 91%
    05:00 +5°C° 0.2 mm 8 m/s 749 mmHg 92%
    06:00 +5°C° 0.9 mm 8 m/s 749 mmHg 92%
    07:00 +5°C° 0.9 mm 8 m/s 749 mmHg 93%
    08:00 +5°C° 0.9 mm 8 m/s 750 mmHg 93%
    09:00 +5°C° 0.1 mm 8 m/s 750 mmHg 93%
    10:00 +5°C° 0.1 mm 7 m/s 750 mmHg 93%
    11:00 +5°C° 0.1 mm 7 m/s 750 mmHg 93%
    12:00 +5°C° 0.1 mm 7 m/s 750 mmHg 93%
    13:00 +4°C° 0.1 mm 7 m/s 750 mmHg 93%
    14:00 +4°C° 0.1 mm 7 m/s 750 mmHg 93%
    15:00 +4°C° 0.3 mm 7 m/s 750 mmHg 94%
    16:00 +5°C° 0.3 mm 7 m/s 749 mmHg 95%
    17:00 +5°C° 0.3 mm 7 m/s 749 mmHg 95%
    18:00 +5°C° 0.6 mm 7 m/s 749 mmHg 95%
    19:00 +5°C° 0.6 mm 7 m/s 749 mmHg 96%
    20:00 +5°C° 0.6 mm 8 m/s 749 mmHg 96%
    21:00 +5°C° 1.9 mm 7 m/s 749 mmHg 96%
    22:00 +5°C° 1.9 mm 6 m/s 749 mmHg 97%
    23:00 +6°C° 1.9 mm 5 m/s 749 mmHg 97%

    26 Janvier, Samedi

    Heure Température Précipitation Vent Pression Humidité
    00:00 +6°C° 0.5 mm 4 m/s 749 mmHg 97%
    01:00 +6°C° 0.5 mm 4 m/s 749 mmHg 97%
    02:00 +7°C° 0.5 mm 3 m/s 748 mmHg 97%
    03:00 +5°C° 0 mm 4 m/s 748 mmHg 95%
    04:00 +5°C° 0 mm 5 m/s 748 mmHg 94%
    05:00 +5°C° 0 mm 5 m/s 748 mmHg 92%
    06:00 +4°C° 0 mm 6 m/s 748 mmHg 91%
    07:00 +3°C° 0 mm 6 m/s 749 mmHg 90%
    08:00 +3°C° 0 mm 6 m/s 749 mmHg 89%
    09:00 +3°C° 0 mm 6 m/s 749 mmHg 86%
    10:00 +3°C° 0 mm 6 m/s 749 mmHg 84%
    11:00 +3°C° 0 mm 6 m/s 750 mmHg 82%
    12:00 +3°C° 0 mm 6 m/s 750 mmHg 80%
    13:00 +4°C° 0 mm 6 m/s 750 mmHg 78%
    14:00 +4°C° 0 mm 6 m/s 750 mmHg 76%
    15:00 +3°C° 0 mm 6 m/s 750 mmHg 78%
    16:00 +2°C° 0 mm 6 m/s 750 mmHg 81%
    17:00 +1°C° 0 mm 5 m/s 750 mmHg 83%
    18:00 +1°C° 0 mm 6 m/s 750 mmHg 83%
    19:00 +1°C° 0 mm 6 m/s 751 mmHg 84%
    20:00 -1°C° 0 mm 6 m/s 751 mmHg 84%
    21:00 -1°C° 0 mm 6 m/s 751 mmHg 84%
    22:00 -1°C° 0 mm 6 m/s 751 mmHg 84%
    23:00 -1°C° 0 mm 6 m/s 751 mmHg 84%
    Voir plus